Date String (YYYY-MM-DD hh:mm:ss) UTC,Instrument flags,absolute air pressure of the measurement (hPa),sample flow rate (lpm),inlet stack bypass flow (lpm),air temperature of the measurement (°C),ambient temperature measured by the external sensor (°C),aerosol sample conditioner tube jacket temperature (°C),OPC LED temperature (°C),internal box temperature (°C),relative humidity of the measurement (%),span deviation,mass concentration of particles derived from Lorenz-Mie calculation of OPC scattering (μg/m³),mass concentration of particles derived from Lorenz-Mie calculation of OPC scattering (μg/m³),mass concentration of particles derived from Lorenz-Mie calculation of OPC scattering (μg/m³)
DateTimeUTC,F1_M11,P_M11,Q1_M11,Q2_M11,T1_M11,T2_M11,T3_M11,T4_M11,T5_M11,U1_M11,ZSPAN_M11,X0_M11,X2_M11,X1_M11
2024-01-29 04:00:00,SystemResetWarning,0837.2,5.01,000.00,025.8,024.9,000.0,034.1,027.2,12.0,0000.0,0004.81,0001.57,0001.20
2024-01-29 04:01:00,SystemResetWarning,0837.3,5.01,000.00,025.8,024.9,000.0,034.1,027.2,12.0,0000.0,0004.78,0001.57,0001.20
2024-01-29 04:02:00,SystemResetWarning,0837.2,5.00,000.00,025.8,024.9,000.0,034.1,027.2,12.0,0000.0,0003.99,0001.58,0001.21
2024-01-29 04:03:00,SystemResetWarning,0837.2,5.00,000.00,025.8,025.0,000.0,034.1,027.2,12.0,0000.0,0004.03,0001.55,0001.19
2024-01-29 04:04:00,SystemResetWarning,0837.2,4.99,000.00,025.8,024.9,000.0,034.1,027.2,12.0,0000.0,0005.01,0001.56,0001.19
2024-01-29 04:05:00,SystemResetWarning,0837.2,4.99,000.00,025.8,024.9,000.0,034.1,027.2,12.0,0000.0,0006.12,0001.58,0001.21
2024-01-29 04:06:00,SystemResetWarning,0837.2,5.00,000.00,025.8,024.9,000.0,034.1,027.2,12.0,0000.0,0006.69,0001.56,0001.23
2024-01-29 04:07:00,SystemResetWarning,0837.2,5.01,000.00,025.8,024.9,000.0,034.1,027.3,12.0,0000.0,0005.92,0001.55,0001.24
2024-01-29 04:08:00,SystemResetWarning,0837.2,5.01,000.00,025.8,024.9,000.0,034.1,027.2,12.0,0000.0,0005.31,0001.56,0001.23
2024-01-29 04:09:00,SystemResetWarning,0837.2,5.00,000.00,025.8,024.9,000.0,034.1,027.2,12.0,0000.0,0005.29,0001.54,0001.22
2024-01-29 04:10:00,SystemResetWarning,0837.2,5.00,000.00,025.8,024.9,000.0,034.1,027.2,12.0,0000.0,0005.30,0001.57,0001.25
2024-01-29 04:11:00,SystemResetWarning,0837.2,5.00,000.00,025.8,024.9,000.0,034.1,027.2,12.0,0000.0,0005.46,0001.63,0001.28
2024-01-29 04:12:00,SystemResetWarning,0837.2,5.00,000.00,025.8,024.9,000.0,034.1,027.2,12.0,0000.0,0005.39,0001.63,0001.29
2024-01-29 04:13:00,SystemResetWarning,0837.2,5.00,000.00,025.8,024.9,000.0,034.1,027.2,12.0,0000.0,0005.28,0001.66,0001.32
2024-01-29 04:14:00,SystemResetWarning,0837.2,5.00,000.00,025.8,024.9,000.0,034.1,027.2,12.0,0000.0,0005.30,0001.71,0001.37
2024-01-29 04:15:00,SystemResetWarning,0837.2,5.00,000.00,025.8,024.9,000.0,034.1,027.2,12.0,0000.0,0004.65,0001.80,0001.44
2024-01-29 04:16:00,SystemResetWarning,0837.2,4.99,000.00,025.8,024.8,000.0,034.1,027.2,12.0,0000.0,0004.81,0001.91,0001.54
2024-01-29 04:17:00,SystemResetWarning,0837.2,5.00,000.00,025.8,024.8,000.0,034.1,027.2,12.0,0000.0,0005.17,0002.00,0001.62
2024-01-29 04:18:00,SystemResetWarning,0837.2,5.00,000.00,025.8,024.8,000.0,034.1,027.2,12.0,0000.0,0005.53,0002.12,0001.69
2024-01-29 04:19:00,SystemResetWarning,0837.2,5.00,000.00,025.8,024.8,000.0,034.1,027.2,12.0,0000.0,0005.64,0002.20,0001.77
2024-01-29 04:20:00,SystemResetWarning,0837.2,5.00,000.00,025.8,024.8,000.0,034.1,027.2,12.0,0000.0,0005.71,0002.32,0001.88
2024-01-29 04:21:00,SystemResetWarning,0837.2,5.00,000.00,025.8,024.8,000.0,034.1,027.2,12.0,0000.0,0006.11,0002.41,0001.96
2024-01-29 04:22:00,SystemResetWarning,0837.2,4.99,000.00,025.8,024.8,000.0,034.1,027.2,12.0,0000.0,0006.92,0002.47,0002.06
2024-01-29 04:23:00,SystemResetWarning,0837.2,5.00,000.00,025.8,024.8,000.0,034.1,027.2,12.0,0000.0,0007.12,0002.59,0002.19
2024-01-29 04:24:00,SystemResetWarning,0837.2,5.00,000.00,025.8,024.8,000.0,034.1,027.2,12.0,0000.0,0007.58,0002.72,0002.31
2024-01-29 04:25:00,SystemResetWarning,0837.2,5.00,000.00,025.8,024.8,000.0,034.1,027.2,12.0,0000.0,0008.40,0002.81,0002.40
2024-01-29 04:26:00,SystemResetWarning,0837.2,5.00,000.00,025.8,024.8,000.0,034.1,027.2,12.0,0000.0,0008.56,0002.89,0002.49
2024-01-29 04:27:00,SystemResetWarning,0837.2,5.00,000.00,025.8,024.8,000.0,034.1,027.2,12.1,0000.0,0008.70,0002.99,0002.57
2024-01-29 04:28:00,SystemResetWarning,0837.2,5.01,000.00,025.8,024.8,000.0,034.1,027.2,12.0,0000.0,0008.76,0003.12,0002.65
2024-01-29 04:29:00,SystemResetWarning,0837.2,5.01,000.00,025.8,024.7,000.0,034.1,027.2,12.0,0000.0,0008.71,0003.17,0002.73
2024-01-29 04:30:00,SystemResetWarning,0837.2,5.00,000.00,025.8,024.7,000.0,034.1,027.2,11.9,0000.0,0008.85,0003.25,0002.84
2024-01-29 04:31:00,SystemResetWarning,0837.2,5.00,000.00,025.8,024.7,000.0,034.1,027.2,11.8,0000.0,0008.91,0003.30,0002.90
2024-01-29 04:32:00,SystemResetWarning,0837.2,4.99,000.00,025.8,024.7,000.0,034.1,027.1,12.0,0000.0,0009.07,0003.34,0002.98
2024-01-29 04:33:00,SystemResetWarning,0837.2,4.99,000.00,025.8,024.7,000.0,034.1,027.2,12.0,0000.0,0008.73,0003.38,0003.03
2024-01-29 04:34:00,SystemResetWarning,0837.2,4.99,000.00,025.8,024.6,000.0,034.1,027.2,12.0,0000.0,0008.68,0003.40,0003.04
2024-01-29 04:35:00,SystemResetWarning,0837.3,5.00,000.00,025.8,024.6,000.0,034.1,027.1,12.0,0000.0,0009.11,0003.41,0003.05
2024-01-29 04:36:00,SystemResetWarning,0837.2,5.01,000.00,025.8,024.6,000.0,034.1,027.1,12.0,0000.0,0008.73,0003.41,0003.03
2024-01-29 04:37:00,SystemResetWarning,0837.2,5.00,000.00,025.8,024.6,000.0,034.1,027.1,12.0,0000.0,0008.93,0003.43,0003.03
2024-01-29 04:38:00,SystemResetWarning,0837.2,5.00,000.00,025.7,024.5,000.0,034.1,027.1,12.0,0000.0,0009.03,0003.44,0003.00
2024-01-29 04:39:00,SystemResetWarning,0837.2,5.00,000.00,025.7,024.5,000.0,034.1,027.1,12.0,0000.0,0008.13,0003.41,0002.97
2024-01-29 04:40:00,SystemResetWarning,0837.1,5.00,000.00,025.7,024.5,000.0,034.1,027.1,12.0,0000.0,0008.67,0003.37,0002.94
2024-01-29 04:41:00,SystemResetWarning,0837.1,5.00,000.00,025.7,024.5,000.0,034.0,027.1,12.0,0000.0,0009.70,0003.34,0002.90
2024-01-29 04:42:00,SystemResetWarning,0837.2,5.00,000.00,025.7,024.5,000.0,034.0,027.0,12.0,0000.0,0010.16,0003.34,0002.86
2024-01-29 04:43:00,SystemResetWarning,0837.2,4.99,000.00,025.7,024.4,000.0,034.0,027.0,12.0,0000.0,0010.16,0003.34,0002.81
2024-01-29 04:44:00,SystemResetWarning,0837.2,5.00,000.00,025.7,024.4,000.0,034.0,027.0,12.1,0000.0,0010.72,0003.31,0002.76
2024-01-29 04:45:00,SystemResetWarning,0837.2,5.00,000.00,025.7,024.4,000.0,034.0,027.0,12.1,0000.0,0011.54,0003.28,0002.70
2024-01-29 04:46:00,SystemResetWarning,0837.2,4.99,000.00,025.7,024.4,000.0,034.0,027.0,12.1,0000.0,0011.69,0003.26,0002.66
2024-01-29 04:47:00,SystemResetWarning,0837.2,5.01,000.00,025.7,024.4,000.0,034.0,027.0,12.1,0000.0,0011.44,0003.29,0002.63
2024-01-29 04:48:00,SystemResetWarning,0837.2,5.01,000.00,025.6,024.4,000.0,034.0,027.0,12.1,0000.0,0011.07,0003.30,0002.61
2024-01-29 04:49:00,SystemResetWarning,0837.2,5.01,000.00,025.6,024.4,000.0,034.0,027.0,12.1,0000.0,0011.10,0003.28,0002.58
2024-01-29 04:50:00,SystemResetWarning,0837.2,5.00,000.00,025.6,024.3,000.0,034.0,026.9,12.1,0000.0,0011.20,0003.28,0002.54
2024-01-29 04:51:00,SystemResetWarning,0837.2,5.00,000.00,025.6,024.3,000.0,034.0,026.9,12.1,0000.0,0010.79,0003.26,0002.50
2024-01-29 04:52:00,SystemResetWarning,0837.2,4.99,000.00,025.6,024.3,000.0,033.9,026.9,12.1,0000.0,0009.84,0003.25,0002.47
2024-01-29 04:53:00,SystemResetWarning,0837.2,5.00,000.00,025.6,024.3,000.0,033.9,026.9,12.1,0000.0,0008.91,0003.21,0002.46
2024-01-29 04:54:00,SystemResetWarning,0837.2,5.00,000.00,025.6,024.3,000.0,033.9,026.9,12.1,0000.0,0008.84,0003.20,0002.47
2024-01-29 04:55:00,SystemResetWarning,0837.2,5.00,000.00,025.6,024.3,000.0,033.9,026.9,12.1,0000.0,0009.02,0003.20,0002.46
2024-01-29 04:56:00,SystemResetWarning,0837.2,4.99,000.00,025.5,024.2,000.0,033.9,026.9,12.1,0000.0,0008.43,0003.18,0002.41
2024-01-29 04:57:00,SystemResetWarning,0837.1,5.00,000.00,025.5,024.2,000.0,033.9,026.8,12.1,0000.0,0007.90,0003.13,0002.34
2024-01-29 04:58:00,SystemResetWarning,0837.1,5.00,000.00,025.5,024.2,000.0,033.9,026.8,12.2,0000.0,0008.08,0003.05,0002.30
2024-01-29 04:59:00,SystemResetWarning,0837.0,5.00,000.00,025.5,024.2,000.0,033.9,026.8,12.2,0000.0,0008.39,0002.96,0002.27
